Terug naar catalogus

BREEZE-M DEB

ActiefHEO
NORAD 34226·DEBRIS·🇷🇺 Russia

Gelanceerd Feb 28, 2006 vanaf Baikonur Cosmodrome

Loading…

Volgende Passages (komende 24 uur)

TLE

VerouderendSource: Space-Track

Epoch: Aug 28, 2026, 12:57 UTC

1 34226U 06006AR  26240.53989259  .00002474  00000-0  16773-2 0  9996
2 34226  51.6388 221.7927 4919314 248.0787  53.8215  5.61299673266249

Volg BREEZE-M DEB in realtime met AllMySat

Download on the App Store